This is the latest recevied weather packets stored in our database for station/object VK4TOM-13. If no packets are shown the sender has not sent any weather packets the latest 10 day(s).
| Time | Temp. | Humidity | Pressure | Rain* | Wind** | Luminosity | Snow |
|---|---|---|---|---|---|---|---|
| 1777695338 | 28.89° C | 70% | 1015.6 hPa | 0 mm | - | - | - |
| 1777694737 | 28.89° C | 70% | 1015.7 hPa | 0 mm | - | - | - |
| 1777694136 | 29.44° C | 70% | 1015.6 hPa | 0 mm | - | - | - |
| 1777692934 | 30.56° C | 70% | 1015.7 hPa | 0 mm | - | - | - |
| 1777692333 | 29.44° C | 70% | 1015.9 hPa | 0 mm | - | - | - |
| 1777691731 | 30° C | 70% | 1016.1 hPa | 0 mm | - | - | - |
| 1777691131 | 30° C | 70% | 1016.2 hPa | 0 mm | - | - | - |
| 1777689327 | 28.89° C | 70% | 1016.6 hPa | 0 mm | - | - | - |
| 1777688726 | 28.89° C | 70% | 1016.9 hPa | 0 mm | - | - | - |
| 1777687524 | 28.89° C | 70% | 1017.2 hPa | 0 mm | - | - | - |
| 1777686923 | 28.33° C | 70% | 1017.4 hPa | 0 mm | - | - | - |
| 1777686322 | 28.33° C | 70% | 1017.5 hPa | 0 mm | - | - | - |
| 1777685721 | 28.33° C | 70% | 1017.7 hPa | 0 mm | - | - | - |
| 1777684519 | 28.89° C | 70% | 1018 hPa | 0 mm | - | - | - |
| 1777683918 | 28.33° C | 70% | 1018 hPa | 0 mm | - | - | - |
| 1777682114 | 27.78° C | 70% | 1018.7 hPa | 0 mm | - | - | - |
| 1777680913 | 26.67° C | 70% | 1018.9 hPa | 0 mm | - | - | - |
| 1777679710 | 26.11° C | 70% | 1019 hPa | 0 mm | - | - | - |
| 1777678825 | 25.56° C | 70% | 1019 hPa | 0 mm | - | - | - |
| 1777677675 | 25° C | 70% | 1019.3 hPa | 0 mm | - | - | - |
| 1777677074 | 25° C | 70% | 1019.2 hPa | 0 mm | - | - | - |
| 1777676473 | 24.44° C | 70% | 1019.1 hPa | 0 mm | - | - | - |
| 1777675872 | 23.89° C | 70% | 1018.9 hPa | 0 mm | - | - | - |
| 1777675271 | 23.89° C | 70% | 1018.9 hPa | 0 mm | - | - | - |
| 1777674670 | 23.33° C | 70% | 1018.8 hPa | 0 mm | - | - | - |
* Rain since midnight (hover to see other rain measurements)
** Current wind speed in m/s (hover to see current wind gust speed)